Location: Aressy
(43.2833°N, 0.3167°W)
Time: 02:08:07
(UTC+00:00)

SAR-Lupe-1 - Pass Details

Date: 28 January 2021
Orbit: 482 x 484 km, 98.2° (Epoch: 06 March)

Event Time Altitude Azimuth Distance (km) Brightness Sun altitude
Exits shadow 18:30:13 12° 22° (NNE) 1,535 6.3 -15.1°
Maximum altitude 18:33:26 59° 102° (ESE) 562 4.0 -15.6°
Drops below altitude 10° 18:36:57 10° 182° (S) 1,657 6.9 -16.3°
Sets 18:39:01 0° 186° (S) 2,531 7.9 -16.6°
